GW5292 Weather Reports


time (UTC)temp
C
wind
direction
speed
KPH
gust
KPH
rain 1hr
cm
rain 24hr
cm
rain mn
cm
humidity
%
barometer
mb
20260504201503 21 352 4.8 22.5 0.00 0.00 0.00 37 1009.0
20260504200010 22 186 9.7 19.3 0.00 0.00 0.00 36 1009.2
20260504194511 22 203 6.4 17.7 0.00 0.00 0.00 38 1009.3
20260504193022 21 200 8.0 16.1 0.00 0.00 0.00 39 1009.5
20260504191502 21 167 4.8 14.5 0.00 0.00 0.00 38 1009.6
20260504190007 21 189 4.8 11.3 0.00 0.00 0.00 39 1009.6
20260504184508 21 198 6.4 24.1 0.00 0.00 0.00 38 1009.9
20260504183009 21 235 6.4 14.5 0.00 0.00 0.00 38 1010.2
20260504181503 21 192 6.4 14.5 0.00 0.00 0.00 41 1010.5
20260504180004 21 219 4.8 14.5 0.00 0.00 0.00 39 1010.6
20260504174503 21 192 9.7 14.5 0.00 0.00 0.00 37 1010.8
20260504173009 20 230 4.8 16.1 0.00 0.00 0.00 43 1010.9
20260504171533 20 217 8.0 16.1 0.00 0.00 0.00 41 1011.2
20260504081525 3 238 0.0 0.0 0.00 0.00 0.00 81 1014.0
20260504050014 6 215 0.0 0.0 0.00 0.00 0.00 70 1013.8
20260504044524 7 215 0.0 0.0 0.00 0.00 0.00 65 1013.9
20260504043003 7 215 0.0 0.0 0.00 0.00 0.00 63 1013.7
20260504041507 8 215 0.0 0.0 0.00 0.00 0.00 57 1013.7
20260504040010 9 215 0.0 0.0 0.00 0.00 0.00 57 1013.5
20260504034516 10 215 0.0 3.2 0.00 0.00 0.00 49 1013.2
20260504033022 10 202 0.0 3.2 0.00 0.00 0.00 48 1013.1
20260504031504 10 199 0.0 3.2 0.00 0.00 0.00 48 1013.1
20260504030007 10 207 0.0 3.2 0.00 0.00 0.00 49 1013.1
20260504024514 10 207 0.0 3.2 0.00 0.00 0.00 52 1013.1
20260504023020 10 203 0.0 0.0 0.00 0.00 0.00 53 1013.1
20260504021527 10 203 0.0 3.2 0.00 0.00 0.00 52 1013.2
20260504020006 10 203 0.0 3.2 0.00 0.00 0.00 50 1013.1
20260504014512 10 218 0.0 0.0 0.00 0.00 0.00 52 1013.0
20260504013016 10 218 0.0 0.0 0.00 0.00 0.00 51 1013.0
20260504011524 11 218 1.6 3.2 0.00 0.00 0.00 47 1013.0
20260504010025 11 209 0.0 3.2 0.00 0.00 0.00 46 1012.9
20260504004510 12 209 0.0 3.2 0.00 0.00 0.00 44 1012.7
20260504003012 12 209 0.0 3.2 0.00 0.00 0.00 43 1012.5
20260504001519 13 213 1.6 3.2 0.00 0.00 0.00 41 1012.3
20260504000022 13 204 1.6 6.4 0.00 0.00 0.00 40 1012.2
20260503234537 13 192 1.6 9.7 0.00 0.00 0.00 40 1012.0
20260503233007 14 198 3.2 11.3 0.00 0.00 0.00 38 1012.0
20260503231512 14 210 1.6 8.0 0.00 0.00 0.00 38 1011.9
20260503230022 15 220 1.6 8.0 0.00 0.00 0.00 36 1011.8
20260503224503 15 184 4.8 9.7 0.00 0.00 0.00 36 1011.7
20260503223008 15 200 4.8 9.7 0.00 0.00 0.00 37 1011.6
20260503221511 14 180 3.2 9.7 0.00 0.00 0.00 36 1011.7
20260503220010 15 173 1.6 16.1 0.00 0.00 0.00 36 1011.8
20260503214502 15 179 3.2 9.7 0.00 0.00 0.00 36 1011.7
20260503213008 15 167 1.6 9.7 0.00 0.00 0.00 37 1011.6
20260503211507 15 130 1.6 11.3 0.00 0.00 0.00 35 1011.7
20260503210011 16 267 3.2 14.5 0.00 0.00 0.00 32 1011.7
20260503204504 15 207 4.8 9.7 0.00 0.00 0.00 33 1011.6
20260503203003 15 192 6.4 17.7 0.00 0.00 0.00 35 1012.0